Volver al catálogo

THORAD AGENA D DEB

ActivoSSO
NORAD 42502·DEBRIS·🇺🇸 United States

Lanzado Apr 8, 1970 desde Vandenberg Space Force Base

Loading…

Próximos Pases (próximas 24 horas)

TLE

ActualizadoSource: Space-Track

Época: Sep 14, 2026, 06:01 UTC

1 42502U 70025RG  26257.25109844  .00000007  00000-0  74430-4 0  9991
2 42502  99.7157 169.2201 0013993 351.3702 160.4004 13.54875461633450

Sigue THORAD AGENA D DEB en tiempo real con AllMySat

Download on the App Store